Weather in Nellore

India     14°26′29″N   79°59′04″E
temp.,
°C
wind,
m/s
gust,
m/s
humid.,
%
clouds,
%
prec.,
mm/h
press.,
hPa
HPBL,
m
17 june, thu
thu1723:30+32w71246100 0.6 1005961
02:30+31w61152100 0.0 1003849
05:30+30w61254100 0.0 1004945
08:30+32wsw81345100 0.0 10061560
11:30+36w101333100 0.0 10052285
14:30+38w101329100 0.0 10022797
17:30+38wnw91228100 0.0 10022951
20:30+35wnw9133788 0.0 10051011
18 june, fri
fri1823:30+32wnw81345100 0.0 1006921
02:30+30w61151100 0.0 10051047
05:30+30w4105495 0.0 1005878
08:30+32w7114495 0.0 10071438
11:30+36w81033100 0.0 10062011
14:30+39w81025100 0.0 10033159
17:30+38wnw6926100 0.0 10032857
20:30+32ssw61042100 0.7 1006382
19 june, sat
sat1923:30+33w81239100 0.9 10071041
02:30+31wnw81345100 0.0 10061052
05:30+30w61148100 0.0 10071101
08:30+32w71142100 0.0 10091369
11:30+37w9113098 0.0 10082263
14:30+39w91125100 0.0 10053230
17:30+38wsw71026100 0.2 10042679
20:30+35wnw9133596 0.2 1007942
20 june, sun
sun2023:30+33w5103994 0.8 1007963
02:30+30w7124992 0.0 1007950
05:30+30w61252100 0.0 10071078
08:30+32w91246100 0.0 10091268
11:30+36w9113599 0.0 10071929
14:30+39wnw91026100 0.0 10043061
17:30+37wnw8927100 0.0 10052368
20:30+33n4843100 0.4 1007524
21 june, mon
mon2123:30+31sse4457100 0.4 1007191
02:30+32w6946100 0.0 10061038
05:30+30w61255100 0.0 1006949
08:30+32wnw81148100 0.0 10081226
11:30+36wnw8103498 0.0 10072036
14:30+39wnw8925100 0.0 10043090
17:30+38wnw782596 0.0 10043076
20:30+34w253797 0.1 1006260